Simultaneous Nadir Overpasses (SNOs) Predictions

Prediction of SNOs between METOP-A and TERRA Satellite Orbit:

Table of predicted SNOs for the next 14.0 days since TLE Epoch: 2/23/2019
Index Date (METOP-A) Time (METOP-A) Lat,Lon (METOP-A) SZA (METOP-A ) Date (TERRA) Time (TERRA) Lat,Lon (TERRA) SZA (TERRA ) Distance(km) Time Diff (sec)
1 02/23/2019 07:48:31 81.45, 112.64 93.92 02/23/2019 07:48:42 81.44, 112.78 93.94 2.39 11
2 02/23/2019 08:39:10 -81.44, -79.52 86.05 02/23/2019 08:38:09 -81.44, -79.68 86.10 2.73 61
3 02/26/2019 03:22:45 81.45, 179.12 92.90 02/26/2019 03:22:57 81.44, 179.09 92.89 1.25 12
4 02/26/2019 04:13:24 -81.44, -13.02 87.07 02/26/2019 04:12:23 -81.45, -12.95 87.08 1.39 61
5 02/28/2019 22:56:59 81.45,-114.41 91.86 02/28/2019 22:57:11 81.44,-114.30 91.88 1.75 12
6 02/28/2019 23:47:38 -81.44, 53.47 88.10 02/28/2019 23:46:38 -81.44, 53.29 88.15 3.04 60
7 03/03/2019 18:31:12 81.45, -47.95 90.81 03/03/2019 18:31:24 81.45, -47.79 90.83 2.58 12
8 03/03/2019 19:21:51 -81.44, 119.95 89.15 03/03/2019 19:20:51 -81.45, 119.82 89.19 2.24 60
9 03/06/2019 14:05:26 81.45, 18.50 89.75 03/06/2019 14:05:38 81.45, 18.62 89.77 2.03 12




NCC Satellite Simultaneous Nadir Overpasses (SNOs) Prediction Service
